Index of /zw

[ICO]NameLast modifiedSizeDescription

[PARENTDIR]Parent Directory  -  
[DIR]admin/2015-08-14 10:21 -  
[DIR]billers/2015-08-14 10:23 -  
[DIR]expensetype/2015-08-14 10:23 -  
[DIR]log/2015-08-14 10:24 -  
[DIR]product/2015-08-14 10:24 -  
[DIR]users/2015-08-14 10:26 -  
[DIR]vendors/2015-08-14 10:26 -  
[DIR]others/2015-08-14 12:21 -  
[DIR]investors/2015-08-14 18:55 -  
[DIR]chats/2015-09-28 16:57 -  
[DIR]password/2015-09-28 17:22 -  
[DIR]cheques/2015-11-03 12:08 -  
[DIR]tds/2015-12-08 18:01 -  
[DIR]addpayrolls/2015-12-10 18:29 -  
[DIR]purchases/2015-12-10 18:30 -  
[DIR]repositary/2015-12-11 17:02 -  
[DIR]hr/2015-12-11 18:21 -  
[DIR]purchase_multiple/2015-12-14 12:36 -  
[DIR]role/2015-12-16 15:39 -  
[DIR]repository/2015-12-16 18:23 -  
[DIR]internoffer/2015-12-17 15:26 -  
[DIR]employeeoffer/2015-12-17 15:26 -  
[DIR]developer/2015-12-17 18:11 -  
[DIR]estimation/2015-12-21 12:34 -  
[DIR]profile/2015-12-21 16:04 -  
[DIR]viewnotifications/2016-01-01 12:06 -  
[DIR]payrolls/2016-01-05 16:50 -  
[DIR]events/2016-01-06 17:45 -  
[DIR]communication/2016-01-14 10:40 -  
[DIR]group_messages/2016-01-14 14:23 -  
[DIR]viewgroup_messages/2016-01-14 14:25 -  
[DIR]inbox/2016-01-27 10:59 -  
[DIR]database/2016-02-04 18:40 -  
[DIR]payments/2016-02-11 15:00 -  
[DIR]payments_mobile/2016-02-11 15:00 -  
[DIR]payments_missed/2016-02-11 15:00 -  
[DIR]dashboard/2016-02-11 16:26 -  
[DIR]accounts/2016-05-27 10:56 -  
[DIR]adjustment/2016-05-27 10:58 -  
[DIR]closeleads/2016-05-27 11:02 -  
[DIR]closetickets/2016-05-27 11:02 -  
[DIR]balancesheet/2016-05-27 11:02 -  
[DIR]estimationdata/2016-05-27 11:04 -  
[DIR]expenses/2016-05-27 11:04 -  
[DIR]dashboard_estimation/2016-05-27 11:04 -  
[DIR]dashboard_expense/2016-05-27 11:04 -  
[DIR]dashboard_investments/2016-05-27 11:04 -  
[DIR]dashboard_projects/2016-05-27 11:04 -  
[DIR]dashboard_sale/2016-05-27 11:04 -  
[DIR]investment/2016-05-27 11:14 -  
[DIR]leadmaster/2016-05-27 11:14 -  
[DIR]leads/2016-05-27 11:14 -  
[DIR]notification/2016-05-27 11:14 -  
[DIR]expensesview/2016-05-27 11:14 -  
[DIR]fullhistory/2016-05-27 11:14 -  
[DIR]history/2016-05-27 11:14 -  
[DIR]viewtickets/2016-05-27 11:58 -  
[DIR]purchasesview/2016-05-27 12:01 -  
[DIR]roi/2016-05-27 12:01 -  
[DIR]project/2016-05-27 12:01 -  
[DIR]projectview/2016-05-27 12:01 -  
[DIR]projectviewfew/2016-05-27 12:01 -  
[DIR]viewinvestment/2016-05-27 12:04 -  
[DIR]viewleads/2016-05-27 12:04 -  
[DIR]supportticket/2016-05-27 12:04 -  
[DIR]ticketmaster/2016-05-27 12:04 -  
[DIR]transfer/2016-05-27 12:04 -  
[DIR]viewdata/2016-05-27 12:04 -  
[DIR]sms/2016-05-27 16:01 -  
[DIR]common/2016-10-05 19:33 -  
[DIR]mobileapi/2016-10-05 19:33 -  
[DIR]Classes/2016-10-05 19:33 -  
[DIR]assets/2016-10-05 19:33 -  
[DIR]files/2016-10-05 19:33 -  
[DIR]js/2016-10-05 19:33 -  
[DIR]mail/2016-10-05 19:33 -  
[DIR]pdf/2016-10-05 19:33 -  
[DIR]repositoryfiles/2016-10-05 19:33 -  
[DIR]theme/2016-10-05 19:33 -  
[DIR]customtiming/2016-10-14 10:47 -  
[DIR]viewcustomtiming/2016-10-14 10:49 -  
[DIR]yearplanner/2016-10-14 13:45 -  
[DIR]combodate-1.0.7/2016-10-17 15:59 -  
[DIR]images/2016-10-17 16:00 -  
[DIR]employee/2016-10-21 11:14 -  
[DIR]employeeview/2016-10-21 11:14 -  
[DIR]leavereview/2016-10-21 13:10 -  
[DIR]viewattendance/2016-10-27 17:43 -  
[DIR]attendance/2016-10-27 17:43 -  
[DIR]masterattendance/2016-10-27 17:43 -  
[DIR]swipe_upload/2016-10-27 17:44 -  
[DIR]viewdailystatus/2016-10-27 19:40 -  
[DIR]daily_status/2016-10-27 19:41 -  
[DIR]viewemployeestatus/2016-10-27 19:42 -  
[DIR]leave/2016-11-04 16:56 -  
[DIR]viewleave/2016-11-04 16:58 -  
[DIR]branch/2016-11-04 17:35 -  
[DIR]include/2017-07-01 19:13 -  
[DIR]gst/2017-07-03 13:33 -  
[DIR]home/2017-07-03 15:02 -  
[DIR]operations/2017-07-13 13:05 -  
[DIR]product_validity/2017-07-13 18:46 -  
[DIR]product_validity_view/2017-07-13 19:00 -  
[DIR]addnew/2017-09-04 19:39 -  

Apache/2.4.7 (Ubuntu) Server at zestu.com Port 80